This demonstration page uses our WeatherBlox Daily Observations layout. Learn more.

40.92945, -100.16068

Hourly Observations for May 19, 2016

Temp ( °F °C ) Dew Point ( °F °C ) Humidity (%) Winds ( mph kmh ) Pressure ( in mb ) Visibility ( mi km ) Precip ( " mm )
12:15 am 00:15 Clear 49 9.4 44 6.4 82 82 S 8 13 30.12 1020 10 16.0934 N/A
12:35 am 00:35 Clear 48 9 43 6.1 82 82 S 8 13 30.12 1020 10 16.0934 N/A
12:55 am 00:55 Clear 49 9.2 44 6.4 83 83 SSE 7 11 30.12 1020 10 16.0934 N/A
1:15 am 01:15 Clear 48 8.9 43 6.1 83 83 S 7 11 30.12 1020 10 16.0934 N/A
1:35 am 01:35 Clear 48 9 43 6.1 82 82 SSW 9 15 30.09 1019 10 16.0934 N/A
1:55 am 01:55 Clear 51 10.3 44 6.6 78 78 S 13 20 30.09 1019 10 16.0934 N/A
2:15 am 02:15 Partly Cloudy 51 10.6 44 6.4 75 75 S 12 19 30.06 1018 10 16.0934 N/A
2:35 am 02:35 Clear 51 10.5 43 6.1 74 74 S 12 19 30.09 1019 10 16.0934 N/A
2:55 am 02:55 Clear 50 10.1 43 6 76 76 S 13 20 30.09 1019 10 16.0934 N/A
3:15 am 03:15 Clear 51 10.5 43 5.9 73 73 S 14 22 30.03 1017 10 16.0934 N/A
3:35 am 03:35 Clear 50 10.1 42 5.7 74 74 S 13 20 30.06 1018 10 16.0934 N/A
3:55 am 03:55 Clear 50 10 42 5.7 75 75 SSW 13 20 30.06 1018 10 16.0934 N/A
4:15 am 04:15 Clear 49 9.7 42 5.7 76 76 S 12 19 30.06 1018 10 16.0934 N/A
4:35 am 04:35 Clear 48 9.1 42 5.6 79 79 S 9 15 30.06 1018 10 16.0934 N/A
4:55 am 04:55 Clear 48 9 42 5.7 80 80 S 10 17 30.06 1018 10 16.0934 N/A
5:15 am 05:15 Clear 47 8.6 42 5.6 82 82 S 9 15 30.06 1018 10 16.0934 N/A
5:35 am 05:35 Clear 48 8.8 43 5.9 82 82 S 9 15 30.06 1018 10 16.0934 N/A
5:55 am 05:55 Clear 47 8.5 42 5.7 83 83 S 9 15 30.06 1018 10 16.0934 N/A
6:15 am 06:15 Clear 47 8.5 43 5.9 84 84 S 10 17 30.06 1018 10 16.0934 N/A
6:35 am 06:35 Sunny 47 8.5 43 6 84 84 S 9 15 30.06 1018 10 16.0934 N/A
6:55 am 06:55 Sunny 48 9 43 6.3 83 83 S 9 15 30.06 1018 10 16.0934 N/A
7:15 am 07:15 Sunny 49 9.5 44 6.5 82 82 S 9 15 30.06 1018 10 16.0934 N/A
7:35 am 07:35 Partly Cloudy 51 10.6 45 7.2 80 80 S 12 19 30.03 1017 10 16.0934 N/A
7:55 am 07:55 Mostly Cloudy 54 12.1 46 7.8 75 75 S 12 19 30.03 1017 10 16.0934 N/A
8:15 am 08:15 Mostly Cloudy 54 12.2 46 7.9 75 75 S 13 20 30.03 1017 10 16.0934 N/A
8:35 am 08:35 Partly Cloudy 55 13 47 8.2 73 73 S 14 22 30.03 1017 10 16.0934 N/A
8:55 am 08:55 Mostly Cloudy 58 14.3 47 8.6 69 69 S 15 24 30 1016 10 16.0934 N/A
9:15 am 09:15 Cloudy 57 13.8 47 8.2 69 69 S 16 26 30 1016 10 16.0934 N/A
9:35 am 09:35 Cloudy 56 13.5 47 8.3 71 71 S 13 20 30 1016 10 16.0934 N/A
9:55 am 09:55 Cloudy 57 13.7 47 8.3 70 70 S 16 26 30 1016 10 16.0934 N/A
10:15 am 10:15 Cloudy 58 14.5 48 8.7 68 68 S 14 22 30 1016 10 16.0934 N/A
10:35 am 10:35 Cloudy 59 15.2 48 8.8 66 66 S 16 26 30 1016 10 16.0934 N/A
10:55 am 10:55 Cloudy 60 15.7 47 8.4 62 62 S 21 33 30 1016 10 16.0934 N/A
11:15 am 11:15 Cloudy 61 16.1 47 8.6 61 61 S 22 35 30 1016 10 16.0934 N/A
11:35 am 11:35 Mostly Cloudy 62 16.8 48 8.9 60 60 SSE 23 37 29.97 1015 10 16.0934 N/A
11:55 am 11:55 Partly Cloudy 63 17.4 47 8.2 55 55 SSE 22 35 29.97 1015 10 16.0934 N/A
12:15 pm 12:15 Partly Cloudy 63 17.3 46 7.7 53 53 S 20 31 29.97 1015 10 16.0934 N/A
12:35 pm 12:35 Partly Cloudy 63 17.1 46 7.6 54 54 SSW 17 28 29.97 1015 10 16.0934 N/A
12:55 pm 12:55 Cloudy 62 16.6 46 7.5 55 55 S 18 30 29.94 1014 10 16.0934 N/A
1:15 pm 13:15 Cloudy 61 16.1 46 8 59 59 S 21 33 29.97 1015 10 16.0934 N/A
1:35 pm 13:35 Cloudy 62 16.6 47 8.6 59 59 S 17 28 29.94 1014 10 16.0934 N/A
1:55 pm 13:55 Cloudy 61 16 45 7.3 57 57 S 22 35 29.97 1015 10 16.0934 N/A
2:15 pm 14:15 Cloudy 61 16.3 46 7.9 58 58 S 15 24 29.97 1015 10 16.0934 N/A
2:35 pm 14:35 Cloudy 63 17.2 46 7.7 54 54 S 18 30 29.94 1014 10 16.0934 N/A
2:55 pm 14:55 Cloudy 62 16.7 46 7.6 55 55 S 17 28 29.91 1013 10 16.0934 N/A
3:15 pm 15:15 Cloudy 62 16.5 46 7.8 57 57 S 23 37 29.91 1013 10 16.0934 N/A
3:35 pm 15:35 Cloudy 61 16.2 46 8 59 59 S 21 33 29.91 1013 10 16.0934 N/A
3:55 pm 15:55 Cloudy 60 15.8 45 7.3 57 57 S 16 26 29.94 1014 10 16.0934 N/A
4:15 pm 16:15 Cloudy 61 16.1 44 6.9 55 55 S 22 35 29.94 1014 10 16.0934 N/A
4:35 pm 16:35 Cloudy 61 16.3 46 7.5 56 56 SSE 20 31 29.91 1013 10 16.0934 N/A
4:55 pm 16:55 Cloudy 62 16.5 47 8.2 58 58 S 18 30 29.88 1012 10 16.0934 N/A
5:15 pm 17:15 Cloudy 61 15.9 46 7.6 58 58 S 16 26 29.88 1012 10 16.0934 N/A
5:35 pm 17:35 Cloudy 61 16 46 7.9 59 59 S 21 33 29.88 1012 10 16.0934 N/A
5:55 pm 17:55 Cloudy 60 15.8 46 7.8 59 59 S 16 26 29.91 1013 10 16.0934 N/A
6:15 pm 18:15 Cloudy 60 15.5 45 7.3 58 58 SSE 17 28 29.91 1013 10 16.0934 N/A
6:35 pm 18:35 Cloudy 60 15.5 46 7.7 60 60 SSE 17 28 29.91 1013 10 16.0934 N/A
6:55 pm 18:55 Cloudy 59 15.2 47 8.1 63 63 SSE 20 31 29.91 1013 10 16.0934 N/A
7:15 pm 19:15 Cloudy 59 15 46 7.5 61 61 SSE 20 31 29.91 1013 10 16.0934 N/A
7:35 pm 19:35 Cloudy 58 14.6 45 7.4 62 62 SSE 18 30 29.91 1013 10 16.0934 N/A
7:55 pm 19:55 Cloudy 58 14.3 46 7.5 64 64 SSE 18 30 29.91 1013 10 16.0934 N/A
8:15 pm 20:15 Cloudy 57 14.1 46 7.8 66 66 SSE 15 24 29.91 1013 10 16.0934 N/A
8:35 pm 20:35 Cloudy 57 13.9 46 7.7 66 66 SSE 16 26 29.91 1013 10 16.0934 N/A
8:55 pm 20:55 Cloudy 57 13.7 45 7.4 66 66 SSE 16 26 29.91 1013 10 16.0934 N/A
9:15 pm 21:15 Cloudy 56 13.4 46 8 70 70 SSE 16 26 29.91 1013 10 16.0934 N/A
9:35 pm 21:35 Cloudy 56 13.1 46 7.9 71 71 SSE 14 22 29.91 1013 10 16.0934 N/A
9:55 pm 21:55 Cloudy 55 12.8 47 8.1 73 73 SE 13 20 29.97 1015 10 16.0934 N/A
10:15 pm 22:15 Cloudy 55 12.5 46 8 74 74 SSE 16 26 29.97 1015 10 16.0934 N/A
10:35 pm 22:35 Cloudy 54 12.1 46 8 76 76 SSE 16 26 29.97 1015 10 16.0934 N/A
10:55 pm 22:55 Cloudy 53 11.5 46 7.7 78 78 SE 15 24 29.97 1015 10 16.0934 N/A
11:15 pm 23:15 Mostly Cloudy 51 10.6 46 7.6 82 82 SSE 14 22 29.97 1015 10 16.0934 N/A
11:35 pm 23:35 Clear 50 9.9 46 7.5 85 85 SSE 12 19 29.97 1015 10 16.0934 N/A
11:55 pm 23:55 Clear 49 9.5 46 7.5 87 87 SSE 10 17 30 1016 10 16.0934 N/A

Powered by AerisWeather